White Mountain, AK

7:26 PM AKDT on October 20, 2017 (GMT -0800)
White Mountain

Weather History for PAWM - October, 2012

Change the Weather History Date:

Tuesday, October 9, 2012

  Actual Average (PAOM) Record (PAOM)
Temperature  
Mean Temperature 34 °F -  
Max Temperature 39 °F 36 °F 51 °F (1932)
Min Temperature 28 °F 25 °F 11 °F (1971)
Degree Days  
Heating Degree Days 32    
Moisture  
Dew Point 22 °F    
Average Humidity 65    
Maximum Humidity 82    
Minimum Humidity 46    
Precipitation  
Precipitation 0.00 in - - ()
Sea Level Pressure  
Sea Level Pressure 30.48 in    
Wind  
Wind Speed 10 mph ()    
Max Wind Speed 13 mph    
Max Gust Speed 23 mph    
Visibility 9.4 miles    
Events      
Averages and records for this station are not official NWS values.
T = Trace of Precipitation, MM = Missing Value Source: Averaged Metar Reports

Daily Weather History Graph

Daily Weather History Graph

Search for Another Location

Airport or City:

Trip Planner

Search our weather history database for the weather conditions in past years. The results will help you decide how hot, cold, wet, or windy it might be!

Date:

Astronomy

Oct. 09, 2012 Rise Set
Actual Time 9:29 AM AKDT 7:50 PM AKDT
Civil Twilight 8:40 AM AKDT 8:39 PM AKDT
Nautical Twilight 7:43 AM AKDT 9:35 PM AKDT
Astronomical Twilight 6:44 AM AKDT 10:34 PM AKDT
Moon 1:10 AM AKDT (10/9) 6:15 PM AKDT (10/9)
Length of Visible Light 11h 58m
Length of Day
10h 21m
Waning Crescent, 35% of the Moon is Illuminated
Oct 9
Waning Crescent
Oct 15
New
Oct 21
First Quarter
Oct 29
Full
Nov 6
Last Quarter

Hourly Weather History & Observations

Time (AKDT) Temp. Windchill Dew Point Humidity Pressure Visibility Wind Dir Wind Speed Gust Speed Precip Events Conditions
12:58 AM 30.9 °F 23.5 °F 25.0 °F 79% 30.50 in 10.0 mi North 8.1 mph 17.3 mph N/A   Clear
1:58 AM 30.0 °F 21.1 °F 25.0 °F 82% 30.50 in 10.0 mi North 10.4 mph 18.4 mph N/A   Clear
2:58 AM 30.0 °F 20.0 °F 24.1 °F 79% 30.49 in 10.0 mi North 12.7 mph 23.0 mph N/A   Clear
3:58 AM 30.0 °F 20.5 °F 25.0 °F 82% 30.50 in 10.0 mi North 11.5 mph 23.0 mph N/A   Clear
4:58 AM 28.9 °F 18.6 °F 24.1 °F 82% 30.49 in 10.0 mi North 12.7 mph 21.9 mph N/A   Clear
5:58 AM 28.9 °F 18.6 °F 23.0 °F 78% 30.48 in 10.0 mi North 12.7 mph - N/A   Clear
6:58 AM 28.9 °F 18.6 °F 21.9 °F 75% 30.48 in 10.0 mi North 12.7 mph - N/A   Clear
7:58 AM 28.9 °F 19.8 °F 19.9 °F 69% 30.48 in 10.0 mi North 10.4 mph - N/A   Clear
8:58 AM 28.9 °F 18.6 °F 19.9 °F 69% 30.48 in 10.0 mi North 12.7 mph 19.6 mph N/A   Clear
9:58 AM 28.9 °F 18.6 °F 19.9 °F 69% 30.49 in 9.0 mi North 12.7 mph - N/A   Clear
10:58 AM 30.0 °F 21.1 °F 19.9 °F 66% 30.49 in 9.0 mi North 10.4 mph - N/A   Clear
11:58 AM 33.1 °F 24.4 °F 19.9 °F 59% 30.49 in 4.0 mi North 11.5 mph 19.6 mph N/A   Haze
12:58 PM 36.0 °F 28.0 °F 21.9 °F 57% 30.49 in 9.0 mi NNE 11.5 mph 19.6 mph N/A   Clear
1:58 PM 37.9 °F 30.9 °F 21.0 °F 51% 30.48 in 9.0 mi North 10.4 mph 20.7 mph N/A   Clear
2:58 PM 39.0 °F 31.4 °F 21.0 °F 49% 30.48 in 9.0 mi North 12.7 mph 20.7 mph N/A   Clear
3:58 PM 39.0 °F 32.3 °F 19.9 °F 46% 30.47 in 9.0 mi NNE 10.4 mph 21.9 mph N/A   Clear
4:58 PM 39.0 °F 31.8 °F 21.0 °F 49% 30.46 in 9.0 mi NNE 11.5 mph 20.7 mph N/A   Clear
5:58 PM 39.0 °F 32.3 °F 21.9 °F 50% 30.45 in 9.0 mi NNE 10.4 mph 18.4 mph N/A   Clear
6:58 PM 37.0 °F 30.4 °F 21.9 °F 54% 30.45 in 10.0 mi NNE 9.2 mph - N/A   Clear
7:58 PM 35.1 °F 26.9 °F 23.0 °F 61% 30.45 in 10.0 mi NNE 11.5 mph 18.4 mph N/A   Clear
8:58 PM 33.1 °F 23.9 °F 21.9 °F 64% 30.45 in 10.0 mi NNE 12.7 mph 18.4 mph N/A   Clear
9:58 PM 33.1 °F 25.5 °F 21.0 °F 61% 30.45 in 10.0 mi NNE 9.2 mph - N/A   Clear
10:58 PM 32.0 °F 23.0 °F 21.0 °F 64% 30.45 in 10.0 mi North 11.5 mph - N/A   Clear
11:58 PM 32.0 °F 24.2 °F 21.0 °F 64% 30.46 in 10.0 mi NNE 9.2 mph - N/A   Clear